Grand Canyon, AZ

4:11 PM MST on December 11, 2017 (GMT -0700)
Grand Canyon National Park

Weather History for KGCN - July, 2013

Change the Weather History Date:

Saturday, July 13, 2013

  Actual Average Record
Temperature  
Mean Temperature 65 °F -  
Max Temperature 82 °F 82 °F 96 °F (2002)
Min Temperature 48 °F 47 °F 37 °F (1997)
Growing Degree Days 15 (Base 50)    
Moisture  
Dew Point 47 °F    
Average Humidity 56    
Maximum Humidity 83    
Minimum Humidity 26    
Precipitation  
Precipitation 0.01 in - - ()
Sea Level Pressure  
Sea Level Pressure 30.00 in    
Wind  
Wind Speed 2 mph (South)    
Max Wind Speed 9 mph    
Max Gust Speed 23 mph    
Visibility 10 miles    
Events Rain    
Averages and records for this station are not official NWS values.
T = Trace of Precipitation, MM = Missing Value Source: NWS Daily Summary

Daily Weather History Graph

Daily Weather History Graph

Search for Another Location

Airport or City:

Trip Planner

Search our weather history database for the weather conditions in past years. The results will help you decide how hot, cold, wet, or windy it might be!

Date:

Astronomy

Jul. 13, 2013 Rise Set
Actual Time 5:22 AM MST 7:46 PM MST
Civil Twilight 4:52 AM MST 8:15 PM MST
Nautical Twilight 4:16 AM MST 8:51 PM MST
Astronomical Twilight 3:36 AM MST 9:31 PM MST
Moon 10:30 AM MST (7/13) 10:41 PM MST (7/13)
Length of Visible Light 15h 22m
Length of Day
14h 23m
Waxing Crescent, 26% of the Moon is Illuminated
Jul 13
Waxing Crescent
Jul 15
First Quarter
Jul 22
Full
Jul 29
Last Quarter
Aug 6
New

Hourly Weather History & Observations

Time (MST) Temp. Dew Point Humidity Pressure Visibility Wind Dir Wind Speed Gust Speed Precip Events Conditions
12:54 AM 53.1 °F 46.0 °F 77% 29.99 in 10.0 mi Calm Calm - N/A   Clear
1:54 AM 51.1 °F 45.0 °F 80% 30.00 in 10.0 mi Calm Calm - N/A   Clear
2:54 AM 50.0 °F 44.1 °F 80% 29.99 in 10.0 mi Calm Calm - N/A   Clear
3:54 AM 48.9 °F 43.0 °F 80% 30.00 in 10.0 mi Calm Calm - N/A   Clear
4:54 AM 48.0 °F 43.0 °F 83% 30.02 in 10.0 mi Calm Calm - N/A   Clear
5:54 AM 48.9 °F 44.1 °F 83% 30.04 in 10.0 mi Calm Calm - N/A   Clear
6:54 AM 59.0 °F 48.0 °F 67% 30.03 in 10.0 mi Calm Calm - N/A   Clear
7:54 AM 69.1 °F 52.0 °F 54% 30.01 in 10.0 mi Calm Calm - N/A   Clear
8:54 AM 73.0 °F 50.0 °F 44% 30.00 in 10.0 mi Variable 4.6 mph - N/A   Clear
9:54 AM 75.0 °F 48.9 °F 40% 30.01 in 10.0 mi Variable 5.8 mph - N/A   Mostly Cloudy
10:54 AM 78.1 °F 46.0 °F 32% 30.01 in 10.0 mi SSW 9.2 mph - N/A   Scattered Clouds
11:54 AM 81.0 °F 46.0 °F 29% 29.99 in 10.0 mi WSW 8.1 mph - N/A   Partly Cloudy
12:54 PM 82.0 °F 44.1 °F 26% 29.97 in 10.0 mi Variable 6.9 mph - N/A   Scattered Clouds
1:54 PM 71.1 °F 50.0 °F 47% 30.04 in 10.0 mi East 9.2 mph 23.0 mph 0.00 in Rain Rain
2:54 PM 64.9 °F 57.0 °F 75% 30.10 in 10.0 mi WSW 5.8 mph - 0.01 in Rain Light Rain
3:54 PM 73.0 °F 51.1 °F 46% 30.04 in 10.0 mi ENE 8.1 mph - 0.00 in Rain Light Rain
4:54 PM 77.0 °F 44.1 °F 31% 29.99 in 10.0 mi Calm Calm - 0.00 in   Clear
5:54 PM 77.0 °F 43.0 °F 30% 29.99 in 10.0 mi SW 5.8 mph - 0.00 in Rain Light Rain
6:54 PM 73.9 °F 46.9 °F 38% 29.95 in 10.0 mi ESE 4.6 mph - 0.00 in   Partly Cloudy
7:54 PM 72.0 °F 48.9 °F 44% 29.94 in 10.0 mi Calm Calm - N/A   Mostly Cloudy
8:54 PM 64.0 °F 48.0 °F 56% 29.97 in 10.0 mi Calm Calm - N/A   Clear
9:54 PM 59.0 °F 48.0 °F 67% 29.99 in 10.0 mi Calm Calm - N/A   Clear
10:54 PM 60.1 °F 48.0 °F 64% 29.98 in 10.0 mi Calm Calm - N/A   Clear
11:54 PM 62.1 °F 48.9 °F 62% 29.95 in 10.0 mi Calm Calm - N/A   Partly Cloudy